Precipitable_Water
0.59 0.58 0.58 0.57 0.56 0.55 0.55 0.55 0.55 0.56 0.57 0.57 0.57 0.58 0.58 0.58 0.58 0.57 0.57 0.57 0.56 0.57 0.56 0.55 0.54 0.55 0.57 0.59 0.59 0.61 0.62 0.63 0.64 0.66 0.66 0.66 0.64 0.62 0.63 0.61 0.58 0.54 0.51 0.52 0.55 0.55 0.55 0.56 0.56 0.54 0.56 0.56 0.57 0.57 0.58 0.58 0.58 0.59 0.60 0.61 0.60 0.59 0.58
0.58 0.59 0.58 0.57 0.57 0.56 0.56 0.55 0.55 0.56 0.56 0.56 0.56 0.56 0.57 0.57 0.57 0.56 0.56 0.56 0.55 0.56 0.56 0.55 0.54 0.55 0.57 0.58 0.58 0.58 0.59 0.61 0.61 0.62 0.62 0.63 0.63 0.62 0.62 0.64 0.59 0.56 0.53 0.50 0.52 0.52 0.54 0.55 0.55 0.52 0.55 0.54 0.54 0.54 0.55 0.55 0.56 0.58 0.59 0.59 0.59 0.58 0.57
0.58 0.58 0.58 0.57 0.57 0.57 0.56 0.56 0.55 0.56 0.56 0.56 0.56 0.56 0.56 0.57 0.57 0.56 0.55 0.55 0.55 0.55 0.55 0.54 0.54 0.54 0.56 0.57 0.56 0.57 0.59 0.60 0.60 0.62 0.62 0.62 0.63 0.62 0.61 0.62 0.62 0.58 0.52 0.51 0.51 0.53 0.52 0.53 0.53 0.52 0.52 0.52 0.53 0.53 0.53 0.53 0.54 0.56 0.57 0.57 0.57 0.56 0.55
0.58 0.58 0.57 0.57 0.57 0.56 0.56 0.56 0.56 0.56 0.57 0.57 0.57 0.57 0.56 0.57 0.57 0.56 0.56 0.55 0.55 0.55 0.55 0.54 0.54 0.55 0.56 0.57 0.56 0.57 0.58 0.60 0.61 0.61 0.61 0.61 0.62 0.61 0.61 0.61 0.62 0.60 0.56 0.52 0.50 0.50 0.51 0.52 0.51 0.51 0.50 0.49 0.50 0.50 0.52 0.52 0.53 0.54 0.54 0.55 0.55 0.54 0.54
0.56 0.56 0.56 0.56 0.56 0.56 0.56 0.57 0.57 0.57 0.57 0.58 0.58 0.58 0.57 0.57 0.57 0.56 0.56 0.55 0.56 0.56 0.56 0.56 0.56 0.57 0.57 0.57 0.55 0.56 0.57 0.58 0.58 0.60 0.61 0.60 0.61 0.61 0.61 0.62 0.61 0.60 0.58 0.54 0.52 0.50 0.51 0.51 0.51 0.51 0.51 0.50 0.48 0.48 0.49 0.50 0.50 0.50 0.51 0.51 0.52 0.51 0.51
0.56 0.55 0.55 0.55 0.56 0.56 0.56 0.57 0.57 0.57 0.57 0.57 0.57 0.57 0.57 0.57 0.56 0.56 0.55 0.56 0.56 0.56 0.57 0.57 0.57 0.57 0.57 0.56 0.55 0.55 0.56 0.57 0.57 0.58 0.58 0.59 0.60 0.61 0.61 0.60 0.60 0.59 0.57 0.55 0.53 0.51 0.50 0.50 0.50 0.50 0.50 0.50 0.49 0.47 0.46 0.46 0.47 0.47 0.47 0.47 0.46 0.47 0.47
0.56 0.57 0.57 0.57 0.57 0.56 0.56 0.56 0.56 0.56 0.56 0.56 0.56 0.56 0.56 0.56 0.56 0.55 0.55 0.56 0.56 0.56 0.56 0.57 0.57 0.57 0.57 0.57 0.56 0.55 0.55 0.55 0.55 0.56 0.57 0.58 0.59 0.60 0.60 0.59 0.58 0.57 0.55 0.53 0.51 0.50 0.49 0.48 0.49 0.48 0.47 0.49 0.48 0.46 0.45 0.44 0.44 0.43 0.44 0.44 0.43 0.42 0.43
0.56 0.57 0.57 0.57 0.57 0.57 0.57 0.56 0.56 0.56 0.56 0.56 0.56 0.55 0.55 0.55 0.55 0.54 0.54 0.54 0.55 0.56 0.56 0.57 0.57 0.58 0.58 0.58 0.57 0.56 0.56 0.55 0.54 0.55 0.55 0.57 0.58 0.58 0.57 0.56 0.55 0.54 0.52 0.50 0.49 0.48 0.47 0.47 0.47 0.47 0.47 0.47 0.45 0.43 0.42 0.42 0.42 0.41 0.40 0.39 0.39 0.39 0.39
0.57 0.56 0.56 0.56 0.56 0.55 0.55 0.54 0.54 0.54 0.54 0.54 0.54 0.54 0.53 0.53 0.53 0.53 0.53 0.54 0.54 0.55 0.56 0.57 0.57 0.58 0.58 0.58 0.58 0.58 0.57 0.56 0.55 0.54 0.53 0.54 0.55 0.55 0.55 0.54 0.53 0.52 0.50 0.49 0.48 0.46 0.46 0.46 0.45 0.46 0.46 0.45 0.44 0.44 0.43 0.43 0.41 0.38 0.37 0.36 0.36 0.36 0.37
0.56 0.56 0.55 0.54 0.54 0.54 0.53 0.53 0.54 0.54 0.54 0.53 0.53 0.53 0.53 0.53 0.53 0.54 0.54 0.54 0.54 0.54 0.56 0.57 0.57 0.58 0.58 0.58 0.58 0.58 0.57 0.56 0.56 0.55 0.54 0.53 0.52 0.52 0.52 0.52 0.51 0.50 0.50 0.48 0.47 0.46 0.46 0.44 0.44 0.45 0.46 0.46 0.46 0.45 0.43 0.41 0.39 0.36 0.36 0.35 0.34 0.34 0.35
0.54 0.55 0.54 0.53 0.52 0.51 0.52 0.52 0.53 0.53 0.53 0.53 0.53 0.53 0.53 0.53 0.52 0.53 0.54 0.54 0.54 0.53 0.55 0.56 0.57 0.57 0.57 0.57 0.57 0.56 0.56 0.55 0.54 0.53 0.53 0.52 0.53 0.53 0.52 0.50 0.49 0.49 0.49 0.47 0.46 0.46 0.45 0.45 0.45 0.45 0.46 0.45 0.45 0.44 0.42 0.40 0.38 0.36 0.35 0.34 0.32 0.31 0.34
0.52 0.52 0.52 0.51 0.51 0.50 0.51 0.51 0.52 0.52 0.53 0.53 0.53 0.53 0.53 0.52 0.51 0.52 0.53 0.54 0.54 0.54 0.55 0.55 0.56 0.57 0.57 0.56 0.55 0.55 0.54 0.53 0.53 0.53 0.52 0.52 0.52 0.52 0.52 0.52 0.50 0.48 0.47 0.47 0.45 0.44 0.45 0.45 0.45 0.45 0.45 0.44 0.43 0.42 0.41 0.39 0.38 0.37 0.35 0.34 0.33 0.33 0.33
0.50 0.50 0.50 0.50 0.50 0.50 0.51 0.51 0.52 0.52 0.53 0.52 0.52 0.51 0.51 0.50 0.50 0.51 0.52 0.53 0.54 0.54 0.55 0.56 0.55 0.55 0.55 0.56 0.55 0.54 0.53 0.53 0.52 0.52 0.52 0.52 0.51 0.50 0.50 0.50 0.50 0.51 0.50 0.49 0.46 0.45 0.44 0.45 0.45 0.44 0.44 0.44 0.43 0.43 0.39 0.39 0.37 0.37 0.37 0.36 0.35 0.35 0.36
0.49 0.50 0.50 0.50 0.50 0.50 0.50 0.51 0.52 0.52 0.52 0.52 0.51 0.50 0.50 0.49 0.49 0.50 0.51 0.52 0.53 0.54 0.55 0.55 0.54 0.54 0.54 0.55 0.54 0.52 0.51 0.51 0.50 0.50 0.49 0.49 0.48 0.48 0.48 0.48 0.49 0.49 0.48 0.48 0.47 0.46 0.44 0.45 0.45 0.44 0.44 0.44 0.43 0.41 0.40 0.39 0.38 0.38 0.38 0.37 0.36 0.38 0.38
0.49 0.49 0.50 0.49 0.49 0.49 0.49 0.50 0.51 0.51 0.51 0.51 0.51 0.50 0.50 0.50 0.50 0.51 0.52 0.53 0.54 0.55 0.55 0.55 0.54 0.54 0.53 0.53 0.52 0.51 0.50 0.49 0.48 0.47 0.46 0.46 0.45 0.45 0.46 0.47 0.47 0.47 0.47 0.47 0.46 0.45 0.45 0.45 0.44 0.44 0.44 0.44 0.43 0.42 0.42 0.41 0.40 0.40 0.39 0.39 0.39 0.38 0.38
0.49 0.49 0.49 0.49 0.49 0.48 0.47 0.48 0.50 0.50 0.51 0.51 0.50 0.50 0.50 0.50 0.51 0.51 0.52 0.52 0.54 0.54 0.54 0.54 0.53 0.52 0.52 0.52 0.51 0.51 0.50 0.48 0.47 0.45 0.44 0.43 0.43 0.44 0.45 0.45 0.46 0.47 0.46 0.46 0.45 0.45 0.44 0.44 0.45 0.45 0.44 0.44 0.43 0.42 0.42 0.41 0.40 0.39 0.38 0.37 0.36 0.35 0.35
0.47 0.48 0.49 0.48 0.48 0.47 0.46 0.47 0.49 0.50 0.50 0.50 0.50 0.50 0.50 0.50 0.50 0.50 0.50 0.51 0.52 0.53 0.53 0.53 0.53 0.52 0.52 0.51 0.51 0.50 0.49 0.48 0.46 0.44 0.43 0.42 0.41 0.42 0.42 0.43 0.44 0.45 0.45 0.45 0.45 0.45 0.45 0.45 0.45 0.44 0.44 0.43 0.43 0.42 0.42 0.40 0.37 0.36 0.37 0.35 0.33 0.33 0.33
0.46 0.48 0.48 0.48 0.47 0.47 0.46 0.47 0.49 0.49 0.49 0.49 0.50 0.50 0.49 0.49 0.49 0.49 0.50 0.51 0.52 0.52 0.52 0.52 0.52 0.52 0.51 0.50 0.50 0.49 0.47 0.46 0.45 0.43 0.42 0.41 0.40 0.39 0.39 0.40 0.41 0.42 0.43 0.43 0.44 0.44 0.44 0.44 0.44 0.44 0.43 0.43 0.42 0.41 0.41 0.39 0.36 0.37 0.36 0.34 0.33 0.32 0.32
0.46 0.47 0.48 0.48 0.48 0.48 0.48 0.48 0.49 0.49 0.49 0.48 0.48 0.49 0.48 0.48 0.47 0.47 0.48 0.49 0.49 0.50 0.50 0.50 0.50 0.50 0.49 0.48 0.47 0.47 0.46 0.45 0.44 0.42 0.41 0.40 0.39 0.37 0.37 0.38 0.39 0.40 0.40 0.40 0.40 0.41 0.41 0.41 0.42 0.42 0.41 0.40 0.40 0.39 0.39 0.38 0.37 0.36 0.35 0.33 0.32 0.31 0.30
0.46 0.46 0.47 0.48 0.48 0.48 0.48 0.48 0.48 0.49 0.49 0.48 0.47 0.47 0.47 0.47 0.46 0.46 0.46 0.46 0.46 0.46 0.47 0.48 0.47 0.48 0.47 0.46 0.46 0.46 0.45 0.44 0.43 0.42 0.41 0.39 0.38 0.37 0.36 0.38 0.38 0.39 0.39 0.39 0.39 0.39 0.39 0.39 0.39 0.39 0.38 0.38 0.38 0.37 0.37 0.37 0.36 0.35 0.34 0.32 0.30 0.30 0.29
0.45 0.45 0.46 0.47 0.47 0.47 0.47 0.48 0.47 0.48 0.49 0.48 0.48 0.47 0.46 0.45 0.45 0.45 0.45 0.45 0.45 0.45 0.45 0.46 0.46 0.46 0.46 0.46 0.45 0.45 0.44 0.44 0.42 0.41 0.40 0.39 0.38 0.38 0.39 0.39 0.38 0.38 0.38 0.38 0.37 0.37 0.37 0.37 0.37 0.36 0.36 0.36 0.35 0.35 0.35 0.35 0.34 0.33 0.32 0.30 0.29 0.28 0.27
0.43 0.43 0.44 0.44 0.44 0.44 0.45 0.47 0.47 0.46 0.47 0.47 0.47 0.47 0.46 0.45 0.44 0.45 0.44 0.44 0.44 0.44 0.44 0.45 0.45 0.45 0.45 0.45 0.44 0.44 0.43 0.43 0.42 0.41 0.40 0.39 0.39 0.39 0.39 0.38 0.38 0.37 0.37 0.36 0.36 0.35 0.34 0.34 0.34 0.34 0.34 0.33 0.33 0.33 0.33 0.32 0.31 0.30 0.30 0.29 0.28 0.28 0.26
0.40 0.41 0.41 0.42 0.42 0.42 0.43 0.44 0.45 0.45 0.45 0.45 0.45 0.45 0.45 0.45 0.44 0.45 0.44 0.43 0.42 0.43 0.43 0.44 0.44 0.44 0.44 0.43 0.43 0.43 0.42 0.41 0.40 0.39 0.39 0.39 0.39 0.38 0.38 0.38 0.36 0.36 0.35 0.35 0.34 0.34 0.33 0.33 0.32 0.32 0.32 0.32 0.31 0.31 0.31 0.30 0.30 0.29 0.29 0.28 0.28 0.28 0.28
0.38 0.38 0.38 0.38 0.38 0.39 0.40 0.41 0.43 0.43 0.43 0.43 0.43 0.42 0.42 0.43 0.43 0.43 0.43 0.43 0.42 0.42 0.42 0.42 0.42 0.42 0.42 0.42 0.42 0.41 0.41 0.40 0.39 0.38 0.38 0.38 0.38 0.37 0.37 0.36 0.35 0.35 0.34 0.33 0.32 0.32 0.32 0.31 0.31 0.31 0.30 0.30 0.30 0.30 0.29 0.29 0.29 0.29 0.28 0.28 0.28 0.28 0.27
0.35 0.35 0.35 0.35 0.35 0.35 0.37 0.38 0.39 0.40 0.40 0.40 0.40 0.40 0.40 0.40 0.41 0.41 0.41 0.41 0.42 0.42 0.41 0.41 0.41 0.41 0.41 0.41 0.40 0.40 0.39 0.39 0.38 0.38 0.37 0.37 0.37 0.36 0.36 0.35 0.34 0.33 0.33 0.32 0.31 0.31 0.30 0.30 0.30 0.30 0.29 0.29 0.29 0.29 0.29 0.28 0.28 0.28 0.28 0.27 0.27 0.26 0.26
0.33 0.33 0.33 0.33 0.33 0.34 0.35 0.36 0.36 0.37 0.37 0.37 0.37 0.37 0.38 0.38 0.38 0.39 0.39 0.40 0.40 0.40 0.40 0.40 0.40 0.39 0.39 0.39 0.39 0.38 0.37 0.37 0.37 0.37 0.36 0.36 0.35 0.35 0.34 0.34 0.33 0.32 0.31 0.30 0.30 0.30 0.29 0.29 0.29 0.29 0.29 0.29 0.29 0.28 0.27 0.27 0.27 0.26 0.25 0.25 0.24 0.23 0.23
0.31 0.31 0.31 0.31 0.32 0.32 0.33 0.33 0.34 0.34 0.34 0.35 0.35 0.35 0.36 0.36 0.36 0.37 0.37 0.37 0.38 0.38 0.38 0.38 0.38 0.38 0.38 0.37 0.37 0.37 0.36 0.36 0.36 0.35 0.35 0.34 0.34 0.33 0.33 0.33 0.32 0.31 0.30 0.29 0.29 0.29 0.29 0.29 0.29 0.29 0.28 0.28 0.27 0.27 0.27 0.26 0.25 0.24 0.24 0.23 0.23 0.22 0.21
0.29 0.29 0.29 0.29 0.29 0.30 0.30 0.30 0.30 0.31 0.31 0.32 0.32 0.32 0.33 0.33 0.34 0.35 0.35 0.35 0.35 0.36 0.36 0.36 0.36 0.36 0.36 0.35 0.35 0.34 0.34 0.34 0.34 0.33 0.33 0.33 0.32 0.32 0.31 0.31 0.31 0.30 0.30 0.29 0.29 0.29 0.28 0.28 0.28 0.27 0.27 0.26 0.26 0.26 0.25 0.25 0.24 0.23 0.23 0.23 0.22 0.21 0.21
0.28 0.28 0.28 0.28 0.28 0.27 0.27 0.27 0.28 0.29 0.30 0.30 0.30 0.30 0.30 0.30 0.31 0.32 0.32 0.33 0.33 0.33 0.33 0.33 0.32 0.32 0.32 0.32 0.32 0.31 0.31 0.31 0.31 0.31 0.31 0.31 0.31 0.30 0.30 0.29 0.29 0.28 0.28 0.28 0.28 0.27 0.27 0.26 0.26 0.26 0.26 0.25 0.25 0.24 0.24 0.24 0.24 0.23 0.23 0.23 0.22 0.22 0.21
0.27 0.27 0.27 0.26 0.27 0.27 0.25 0.25 0.26 0.28 0.28 0.28 0.28 0.28 0.28 0.29 0.29 0.29 0.30 0.30 0.31 0.30 0.29 0.29 0.29 0.29 0.29 0.29 0.29 0.29 0.29 0.29 0.29 0.29 0.29 0.29 0.29 0.29 0.28 0.28 0.28 0.27 0.27 0.27 0.27 0.26 0.25 0.25 0.25 0.24 0.24 0.24 0.23 0.23 0.23 0.24 0.23 0.23 0.23 0.22 0.22 0.22 0.22
0.25 0.25 0.25 0.24 0.23 0.24 0.25 0.25 0.25 0.25 0.25 0.25 0.25 0.25 0.26 0.26 0.27 0.27 0.28 0.28 0.28 0.27 0.27 0.26 0.26 0.26 0.27 0.27 0.27 0.27 0.28 0.28 0.27 0.27 0.27 0.27 0.27 0.27 0.27 0.27 0.26 0.26 0.26 0.26 0.26 0.25 0.25 0.24 0.23 0.23 0.23 0.23 0.23 0.23 0.23 0.23 0.23 0.23 0.22 0.22 0.22 0.21 0.21
0.23 0.23 0.22 0.22 0.22 0.22 0.21 0.22 0.22 0.22 0.22 0.22 0.22 0.22 0.22 0.23 0.23 0.24 0.24 0.25 0.25 0.24 0.24 0.24 0.24 0.24 0.24 0.25 0.25 0.25 0.26 0.26 0.26 0.26 0.26 0.26 0.26 0.25 0.26 0.25 0.25 0.26 0.25 0.25 0.24 0.24 0.23 0.23 0.23 0.23 0.22 0.22 0.22 0.22 0.22 0.22 0.22 0.22 0.21 0.21 0.21 0.21 0.21
0.22 0.21 0.21 0.20 0.20 0.20 0.19 0.19 0.19 0.19 0.19 0.19 0.20 0.20 0.20 0.20 0.20 0.21 0.21 0.21 0.21 0.20 0.20 0.21 0.21 0.21 0.22 0.22 0.22 0.23 0.24 0.24 0.24 0.25 0.25 0.25 0.24 0.24 0.24 0.24 0.24 0.25 0.24 0.24 0.23 0.23 0.22 0.22 0.22 0.22 0.22 0.22 0.22 0.21 0.21 0.21 0.21 0.21 0.21 0.21 0.20 0.20 0.20
0.20 0.19 0.18 0.17 0.17 0.17 0.17 0.17 0.17 0.17 0.17 0.17 0.17 0.17 0.17 0.17 0.17 0.18 0.18 0.18 0.17 0.17 0.17 0.17 0.18 0.18 0.19 0.19 0.20 0.20 0.21 0.21 0.22 0.22 0.22 0.23 0.23 0.23 0.23 0.23 0.23 0.23 0.22 0.22 0.22 0.22 0.22 0.22 0.21 0.21 0.21 0.21 0.21 0.21 0.21 0.20 0.20 0.20 0.20 0.19 0.19 0.19 0.19
0.15 0.15 0.15 0.15 0.14 0.14 0.15 0.15 0.15 0.15 0.16 0.16 0.16 0.16 0.16 0.16 0.15 0.14 0.15 0.16 0.16 0.16 0.16 0.16 0.16 0.16 0.17 0.17 0.17 0.18 0.18 0.19 0.19 0.19 0.20 0.20 0.20 0.21 0.21 0.21 0.21 0.21 0.21 0.21 0.21 0.21 0.21 0.21 0.20 0.20 0.20 0.20 0.20 0.20 0.19 0.19 0.19 0.19 0.19 0.19 0.19 0.18 0.18
0.13 0.13 0.14 0.14 0.14 0.14 0.14 0.14 0.14 0.14 0.15 0.15 0.15 0.15 0.15 0.14 0.13 0.13 0.14 0.14 0.15 0.15 0.15 0.16 0.16 0.16 0.16 0.17 0.17 0.17 0.17 0.17 0.18 0.18 0.18 0.19 0.19 0.19 0.19 0.19 0.19 0.20 0.20 0.20 0.20 0.20 0.20 0.20 0.20 0.20 0.19 0.19 0.19 0.19 0.19 0.19 0.19 0.18 0.18 0.18 0.18 0.18 0.18
Wind_Speed
36 36 36 36 36 36 36 36 36 36 36 37 37 37 37 36 36 36 36 36 37 37 37 37 37 37 38 38 38 39 39 39 39 39 39 39 38 38 38 37 37 37 37 37 37 36 36 36 37 37 37 38 37 36 36 35 35 34 34 34 33 33 33
36 36 37 37 37 37 36 36 36 36 37 37 38 38 37 37 37 37 37 37 38 38 38 38 38 38 38 39 39 39 39 39 39 39 39 39 38 38 38 38 38 37 37 37 37 37 36 37 37 38 38 38 38 37 36 36 35 35 35 34 34 34 34
36 36 37 37 37 37 37 37 37 37 37 38 38 38 38 38 38 38 38 38 39 39 38 38 38 39 39 39 39 40 39 39 39 39 39 38 38 38 38 38 38 38 37 37 37 37 37 37 37 38 38 38 38 37 37 36 36 35 35 35 35 34 34
36 36 36 36 36 36 37 37 37 38 38 38 38 38 38 38 39 39 39 40 40 39 39 39 39 39 39 39 40 40 40 39 39 38 38 38 38 38 38 38 38 38 37 36 37 37 37 37 37 37 38 38 37 37 36 36 37 36 36 36 35 35 34
35 36 36 36 36 36 37 37 37 38 38 38 39 39 39 39 39 40 40 40 40 40 40 40 40 40 40 40 39 39 39 38 38 38 38 38 37 38 38 37 37 37 36 36 35 35 35 35 35 36 37 37 36 36 36 36 36 37 36 36 35 35 34
36 36 36 36 36 37 37 37 38 38 38 39 39 39 40 40 40 41 41 41 41 40 40 40 40 40 40 39 39 38 37 37 37 37 37 37 37 36 36 35 35 35 34 33 33 33 33 33 34 35 35 36 36 36 36 36 36 36 36 36 36 35 34
36 36 37 37 37 38 38 38 38 39 39 39 40 40 40 41 41 41 42 41 41 41 41 41 41 40 40 39 38 37 36 36 36 36 36 36 35 34 33 33 32 32 32 31 31 32 32 32 33 34 34 35 35 36 37 37 36 36 36 36 36 35 35
36 37 37 38 38 38 39 39 39 40 40 40 41 41 41 41 42 42 42 42 42 41 41 41 40 40 39 38 37 36 35 35 35 35 34 34 32 32 31 31 31 31 31 31 31 32 32 32 33 34 34 34 35 36 36 36 36 36 36 36 35 36 36
37 38 38 38 39 39 39 40 40 40 41 41 41 42 42 42 42 42 42 42 42 42 41 40 39 39 38 37 36 35 35 35 34 33 32 31 31 31 31 31 31 31 31 31 31 32 32 33 33 34 34 34 35 35 36 36 36 35 35 35 35 35 36
38 39 39 39 39 39 40 40 40 41 41 41 42 42 43 43 43 42 42 42 42 41 40 39 39 38 37 36 35 35 35 34 33 32 32 31 31 31 31 31 31 31 31 32 32 33 33 33 34 34 34 35 35 34 34 35 35 34 34 34 34 35 36
39 39 40 40 40 40 40 41 41 41 41 42 42 43 43 43 43 43 42 42 41 41 40 39 38 38 37 36 35 34 34 33 33 32 31 31 31 31 31 31 31 32 32 33 33 33 34 34 34 35 35 34 34 33 34 34 34 34 34 34 34 34 35
40 40 41 41 41 41 42 42 42 41 42 42 43 44 44 43 43 42 42 41 41 40 39 38 37 36 35 35 34 34 33 32 32 31 31 31 31 31 31 32 32 33 33 33 33 33 33 33 33 34 34 34 33 33 33 33 34 34 34 34 35 34 34
41 41 41 42 42 42 42 42 42 42 43 43 44 44 44 43 42 41 40 40 40 39 38 37 36 35 35 34 34 32 31 31 31 31 30 30 30 30 31 32 32 33 33 33 32 32 32 33 32 33 34 34 33 33 33 33 34 34 34 34 34 34 33
42 42 42 42 42 43 43 43 43 43 43 43 43 43 42 41 40 39 38 38 38 37 35 34 34 34 34 33 32 30 30 30 30 30 30 30 30 30 30 30 31 31 31 31 31 31 31 31 31 32 32 33 33 33 33 33 33 34 34 34 33 33 32
43 43 43 43 43 43 43 43 43 43 43 42 42 41 41 39 38 37 36 35 35 34 33 32 32 32 33 32 31 30 30 30 30 29 29 29 29 29 29 29 29 29 29 29 29 29 29 29 30 30 31 31 32 32 32 32 32 33 33 32 32 32 32
43 43 43 43 43 43 43 43 42 42 42 41 41 40 39 38 37 35 35 34 33 32 31 31 31 32 32 31 31 31 31 30 30 29 29 29 29 28 28 28 28 27 27 27 27 27 27 28 29 30 30 31 31 31 31 30 31 31 31 31 31 31 31
43 44 43 43 43 43 43 43 42 41 41 40 40 39 38 36 35 34 34 33 32 31 31 31 31 31 31 30 31 31 31 31 31 30 29 29 28 27 27 27 27 26 26 26 26 26 26 27 28 28 29 30 30 30 30 30 30 30 30 30 30 30 30
44 44 43 43 43 43 43 42 41 41 40 39 39 38 37 36 35 34 33 32 32 31 31 31 31 31 30 30 31 31 31 31 31 30 29 28 27 27 27 27 27 26 26 25 25 25 25 26 26 27 28 28 29 29 29 30 30 30 30 30 29 29 28
44 43 43 42 42 42 42 42 41 40 40 39 38 37 36 35 34 33 33 32 32 32 31 31 31 31 31 31 31 31 32 32 31 30 29 28 28 28 27 27 27 26 26 26 26 25 25 25 25 26 27 27 28 28 29 29 29 29 29 29 29 28 27
43 43 43 42 42 42 42 42 41 40 39 38 37 36 35 34 34 34 34 33 33 32 32 32 32 32 31 31 31 31 32 32 31 30 29 29 29 29 28 27 27 26 26 26 26 26 26 26 26 26 26 27 27 27 28 28 28 28 29 28 28 28 28
43 43 43 42 42 42 41 41 40 39 38 38 37 36 36 35 34 34 34 34 33 33 32 32 32 32 31 31 31 31 31 31 31 30 29 29 30 29 29 28 27 27 27 26 26 26 26 26 26 26 27 27 27 27 27 27 27 28 28 28 28 29 28
43 43 43 42 42 42 41 40 39 38 37 37 36 36 36 35 35 35 34 34 33 33 32 32 32 32 32 32 31 30 31 31 30 29 29 29 29 29 29 29 28 28 27 27 26 26 26 26 27 27 27 28 28 28 28 27 28 28 28 28 28 29 29
43 43 42 42 42 41 40 38 37 36 36 36 36 36 36 36 36 35 35 34 34 33 33 33 33 33 33 32 32 31 31 31 30 30 29 29 29 29 29 30 29 28 28 27 27 26 26 27 27 28 28 28 28 28 28 28 28 28 28 28 28 28 29
43 42 42 42 41 40 39 37 36 36 36 36 36 36 36 36 36 36 35 35 35 34 34 33 33 33 33 33 33 32 32 32 31 31 30 30 30 30 30 30 30 29 28 28 27 27 27 27 28 28 28 29 29 29 29 29 29 29 29 29 29 29 29
43 43 42 41 40 39 38 36 36 36 36 36 36 36 36 36 36 36 36 36 36 36 35 35 34 33 33 33 33 33 33 32 32 32 31 31 30 31 31 31 30 30 29 29 28 28 28 28 28 28 29 29 29 30 30 30 30 30 30 30 30 30 30
43 42 41 40 38 37 36 36 36 36 36 36 36 36 36 37 37 37 37 37 37 36 36 36 35 34 34 34 34 34 33 33 34 33 33 32 32 32 32 32 31 30 30 30 30 29 29 29 29 29 29 29 30 30 31 31 31 31 31 31 31 31 31
41 40 39 38 37 36 36 36 36 36 36 36 36 36 37 37 37 37 37 37 37 37 37 37 36 36 35 35 35 35 34 34 35 35 35 34 34 33 33 33 32 32 31 31 31 30 30 30 30 30 30 31 31 31 31 31 31 32 32 32 32 32 32
39 38 37 36 36 36 36 36 36 36 36 36 37 37 37 37 37 37 37 37 37 37 37 37 37 37 36 36 36 36 35 35 35 36 36 36 36 35 35 34 34 33 33 32 32 32 32 32 32 32 32 32 32 32 32 32 32 32 32 32 32 33 33
37 36 35 36 36 36 36 36 36 37 37 37 37 37 37 37 37 37 37 37 37 37 37 38 38 37 37 37 37 37 37 36 36 37 37 37 37 37 37 36 36 35 35 34 34 33 33 33 33 33 33 32 32 33 33 33 33 33 33 33 33 34 34
35 35 35 36 36 36 37 37 38 38 38 38 38 38 38 38 37 37 37 37 37 37 37 38 38 38 38 38 38 37 38 38 38 38 38 38 38 38 38 38 38 37 37 36 36 35 35 34 34 34 34 34 33 33 33 34 34 34 34 34 34 35 35
35 35 36 36 37 37 38 38 39 39 39 39 39 39 39 39 39 38 38 37 37 37 37 38 38 38 38 38 38 38 38 39 39 39 39 39 39 40 40 40 39 39 38 38 37 37 36 36 35 35 35 35 35 34 34 34 35 35 35 35 35 35 36
35 36 36 37 38 38 39 39 40 40 40 40 40 40 39 39 39 39 39 38 38 38 38 38 39 39 39 39 39 39 39 39 39 39 40 40 40 40 40 40 40 40 39 39 38 38 38 37 37 37 36 36 36 36 35 35 36 36 36 36 36 36 36
37 37 38 38 39 39 39 40 40 40 40 40 40 40 39 39 39 39 39 39 38 38 38 38 39 39 39 39 39 39 39 39 39 39 40 40 40 40 41 41 41 40 40 40 39 39 39 38 38 38 37 37 37 37 37 37 37 37 37 37 37 37 37
38 38 38 39 39 39 39 40 40 40 40 40 39 39 39 39 39 39 38 38 38 37 37 38 38 38 39 39 39 39 39 39 39 39 39 40 40 40 40 40 40 40 40 40 39 39 39 39 39 38 38 38 38 38 38 38 38 38 38 38 38 38 38
38 39 39 39 39 39 39 40 40 39 39 39 38 38 38 38 38 37 37 37 37 37 36 36 36 37 37 37 38 38 38 38 38 38 38 38 39 39 39 40 40 40 39 39 39 39 39 39 39 39 39 38 38 39 39 39 39 39 39 39 39 39 39
39 39 39 39 39 39 39 39 39 39 38 38 37 37 37 37 37 36 36 36 36 36 35 35 35 35 36 36 36 36 36 36 36 36 36 37 37 37 38 38 39 39 39 39 39 39 39 39 39 39 39 39 39 39 39 39 39 39 39 40 40 40 40
Wind_Direction
290 289 289 289 289 289 289 289 290 290 291 291 291 292 292 293 293 293 293 292 292 291 290 289 288 287 287 286 285 284 283 282 281 279 278 277 275 272 269 267 266 266 267 266 264 262 260 260 259 259 258 256 256 255 254 253 253 253 253 253 253 253 253
291 290 290 289 289 289 289 289 290 290 290 290 291 291 292 292 292 292 292 292 291 291 290 289 288 288 287 286 285 284 283 282 281 280 278 276 274 271 269 267 266 265 265 265 264 262 260 259 259 259 258 257 256 255 254 253 253 253 253 253 253 253 253
292 291 290 289 289 289 289 290 290 290 290 290 290 291 291 291 291 291 291 291 291 291 290 289 288 287 287 286 285 284 283 282 281 280 278 275 273 271 270 269 266 265 264 264 263 261 260 259 259 259 258 257 256 255 253 253 253 253 253 253 252 252 252
293 292 292 290 289 289 290 290 290 290 290 290 290 291 291 291 291 291 291 291 291 290 289 288 287 287 287 286 285 284 283 282 281 279 276 274 273 273 272 271 268 266 265 264 263 262 260 259 259 259 258 256 255 254 253 252 252 252 252 252 252 251 251
294 293 292 291 290 290 290 290 290 290 290 290 291 291 291 291 291 291 291 291 290 289 288 287 287 287 287 286 285 284 283 281 279 277 275 274 274 274 273 271 268 266 265 263 262 261 260 259 258 258 256 255 253 252 251 251 251 251 251 251 251 251 251
294 294 293 292 291 291 290 290 290 291 291 291 291 291 291 291 291 291 291 291 290 289 288 287 287 287 286 286 285 284 283 281 278 277 276 275 274 273 271 269 267 266 264 262 261 260 259 258 257 256 255 254 252 250 250 251 250 251 251 251 251 251 251
294 294 293 293 292 291 291 291 291 291 291 291 291 292 292 292 292 291 291 290 289 288 288 287 286 286 286 285 284 283 282 280 279 278 277 275 273 271 269 268 266 265 263 261 260 260 259 258 257 256 255 254 252 251 251 251 250 250 250 250 250 250 249
294 294 294 293 293 292 292 291 291 291 292 292 292 292 292 292 292 291 291 290 288 288 287 287 286 285 285 284 283 282 281 281 280 279 277 274 272 269 267 266 265 264 262 261 261 261 261 260 258 256 255 254 253 252 252 251 250 249 248 248 248 248 249
294 294 294 294 294 293 292 292 292 292 292 292 293 292 292 292 292 291 290 289 288 287 286 285 285 284 284 283 282 282 282 281 280 278 275 273 270 268 267 266 265 264 263 262 262 263 262 261 260 258 256 254 253 252 251 250 249 248 248 247 248 248 248
295 295 295 294 294 293 292 292 292 292 292 293 293 293 293 292 291 291 290 289 288 287 286 285 283 283 282 282 281 281 281 280 278 276 274 272 270 269 267 266 265 265 264 264 263 263 263 262 262 259 256 253 251 251 250 248 247 247 246 247 248 250 249
296 296 295 295 294 293 293 292 292 292 292 292 293 293 292 292 291 291 289 288 288 287 285 283 282 281 282 281 281 281 280 277 276 275 274 272 270 270 269 267 266 266 266 266 265 264 263 263 261 257 254 251 250 249 249 248 247 246 246 247 248 250 250
296 296 296 295 294 294 293 293 293 292 292 292 292 291 291 291 291 291 290 289 288 286 284 281 281 281 281 280 280 280 278 277 276 275 273 271 271 270 270 269 268 268 267 266 266 265 263 262 260 255 251 250 249 249 249 248 247 246 247 248 249 250 251
297 297 296 296 295 294 294 294 293 293 292 291 291 290 291 291 291 291 290 289 287 285 283 281 280 280 280 280 280 279 278 277 276 274 272 272 272 272 272 271 270 270 268 267 265 264 263 261 257 253 250 249 248 248 248 247 247 247 248 248 249 249 250
298 297 297 296 296 296 295 295 294 293 292 291 290 290 291 291 291 290 289 288 287 285 283 282 280 280 280 279 279 279 277 275 274 273 272 272 272 273 272 272 272 271 269 267 265 264 263 259 256 253 251 250 249 248 248 247 247 248 248 247 248 248 249
298 298 298 297 297 296 296 296 295 293 292 291 291 290 291 291 291 290 289 287 286 284 283 281 280 280 280 279 278 278 277 274 273 273 273 272 272 272 272 272 273 272 269 268 267 265 262 258 254 252 251 249 249 248 248 248 249 249 249 248 248 249 249
298 298 298 298 297 297 296 295 294 294 293 292 291 290 290 290 290 289 288 287 285 283 282 281 280 280 279 277 276 276 275 274 273 272 271 271 271 271 272 272 272 270 269 269 268 265 262 258 254 252 250 249 248 247 247 248 248 248 247 247 248 249 249
298 298 298 297 297 296 295 295 295 294 293 292 290 290 289 289 289 288 287 286 284 282 282 282 281 280 278 275 274 275 274 273 272 271 270 270 270 270 271 272 270 269 269 269 267 265 261 257 254 251 249 247 246 244 244 245 245 245 245 246 248 249 249
299 298 298 297 296 295 295 295 295 294 293 292 290 289 288 288 287 287 287 285 283 283 283 283 281 279 277 276 275 275 273 271 270 269 268 267 267 267 270 271 270 269 269 268 267 264 261 257 253 250 248 246 244 243 243 244 245 244 244 246 248 249 249
299 298 298 297 296 296 296 296 295 293 292 292 290 289 288 287 286 286 286 285 283 282 282 282 280 278 277 277 277 275 273 270 268 266 265 265 265 266 268 270 270 268 268 267 265 263 261 257 254 251 249 246 244 244 244 245 245 245 245 246 247 247 247
299 299 298 297 297 297 296 296 294 293 292 291 290 289 288 287 285 285 285 285 284 282 282 281 280 278 277 277 277 275 272 269 266 265 264 264 265 266 267 269 269 268 266 265 263 261 259 256 254 252 249 247 246 245 244 244 244 244 245 245 246 246 247
299 299 298 298 298 298 297 296 294 293 292 291 289 288 287 286 284 284 284 284 283 282 281 280 280 279 278 277 276 274 272 268 266 265 265 264 266 266 266 267 268 267 265 263 262 260 258 256 254 252 250 248 247 246 245 244 244 244 245 246 246 246 247
299 298 298 299 299 298 297 296 295 293 292 291 290 288 287 286 285 284 283 283 282 281 280 280 279 279 278 277 275 273 271 268 265 265 265 265 266 266 265 265 266 266 264 262 260 259 257 255 254 251 250 248 247 247 246 245 245 244 245 246 247 248 248
299 299 299 299 299 298 297 295 294 293 292 291 290 289 287 286 285 284 283 282 281 280 279 279 278 278 278 276 273 271 269 267 265 265 266 266 265 264 264 264 264 263 262 261 259 257 256 255 254 252 250 248 247 247 246 246 246 246 247 248 248 249 249
299 300 299 299 298 298 296 295 293 293 292 291 291 289 287 286 285 283 282 281 280 280 279 278 278 277 276 275 272 270 267 266 265 264 265 265 265 264 264 263 262 261 260 259 258 257 255 254 253 252 251 249 247 247 247 247 247 248 248 248 249 249 250
300 300 299 298 298 297 296 294 293 292 292 292 291 289 288 287 285 283 281 280 280 279 279 278 277 276 275 274 272 269 267 265 264 263 264 264 264 264 264 263 261 260 258 258 258 256 255 254 253 252 251 250 249 248 247 248 249 249 250 250 250 250 250
300 300 299 298 297 296 295 294 293 293 292 292 291 290 289 287 286 284 282 280 279 278 278 277 277 275 274 273 272 270 268 266 264 263 263 263 264 264 264 262 261 259 258 257 257 256 255 254 253 252 251 250 250 249 249 249 250 250 251 251 251 251 251
300 299 298 297 297 296 296 295 294 293 293 292 291 291 289 288 286 285 283 280 278 277 277 277 276 276 275 273 272 271 269 267 265 263 263 263 263 263 263 262 260 259 258 257 256 256 255 254 253 252 251 250 250 250 250 250 251 251 251 252 252 252 252
300 299 298 297 297 297 296 295 295 294 294 293 292 291 290 289 287 285 283 281 279 277 277 277 276 275 275 273 272 270 269 268 266 264 263 263 263 262 261 260 260 259 257 256 256 255 255 254 253 252 252 251 251 251 251 251 251 252 252 252 253 253 253
300 299 298 298 297 297 296 296 295 295 294 294 293 292 291 289 288 286 284 282 279 278 277 277 276 275 274 273 271 270 268 267 266 264 263 262 262 261 260 259 258 257 256 255 255 254 254 253 253 253 252 252 252 252 251 251 252 252 252 253 253 254 254
301 300 300 299 298 298 297 296 295 295 295 294 293 292 291 289 288 287 285 282 280 279 278 277 276 275 273 272 270 269 268 266 265 264 262 262 261 260 259 258 257 257 256 255 254 253 253 253 253 253 252 252 252 252 252 252 252 253 253 253 254 255 255
303 302 302 301 299 298 297 296 296 295 294 293 292 291 290 289 288 287 285 283 281 279 278 277 276 275 273 272 271 269 267 266 265 263 262 261 260 259 258 258 257 256 255 254 254 253 252 252 252 252 252 253 253 253 253 253 253 254 254 254 255 256 256
303 303 303 302 301 300 299 298 297 296 295 294 292 291 290 290 289 287 286 283 281 280 278 277 276 275 274 273 271 270 268 266 264 263 262 261 260 259 258 257 257 256 255 254 253 253 252 252 252 252 252 253 253 254 254 254 254 254 255 255 256 257 257
303 303 303 303 302 301 300 299 298 297 296 295 293 292 291 290 289 288 286 284 282 281 280 278 277 275 274 273 272 271 269 267 265 263 262 260 259 258 258 257 256 255 255 254 253 253 252 252 252 252 253 253 253 254 255 255 255 256 256 256 257 257 258
303 303 303 302 302 303 302 301 300 299 297 296 294 293 292 291 290 289 287 285 284 283 282 280 278 277 275 274 273 271 270 268 266 264 262 261 259 258 258 257 256 255 254 254 254 253 253 253 253 253 254 254 254 255 255 256 256 257 257 257 257 258 258
303 303 303 302 303 303 303 302 302 300 299 297 296 294 294 292 291 290 288 287 285 285 283 282 280 278 276 275 273 272 270 268 267 265 263 261 260 259 258 257 256 255 254 254 253 253 253 253 253 254 254 255 255 255 256 256 257 257 257 258 258 258 259
304 304 303 302 303 303 303 302 302 302 300 299 297 296 295 293 292 291 289 287 286 285 284 282 280 279 277 275 274 272 270 269 267 265 264 262 260 259 258 257 256 255 254 254 253 253 253 254 254 254 255 255 255 256 256 257 257 257 258 258 258 259 259